Location: Newark
(30.9503°N, 79.5686°E)
Time: 17:27:25
(UTC+00:00)

N. Korean satellite - Visible Passes

Search period start: 22 November 2019 00:00
Search period end: 02 December 2019 00:00
Orbit: 456 x 506 km, 97.2° (Epoch: 21 November)

Date Brightness Start Highest point End Pass type
(mag) Time Alt. Az. Time Alt. Az. Time Alt. Az.
22 Nov 7.6 00:13:38 10° NNE 00:17:13 50° E 00:20:43 10° S visible
22 Nov 8.2 12:16:44 10° S 12:20:10 40° W 12:23:39 10° NNW visible
22 Nov 9.3 23:48:53 10° NE 23:51:45 22° E 23:54:35 10° SSE visible
24 Nov 10.4 13:02:18 10° WSW 13:02:56 10° W 13:03:33 10° W visible
25 Nov 6.5 00:30:44 10° N 00:34:23 85° W 00:37:57 10° SSW visible
25 Nov 9.4 12:34:26 10° SSW 12:37:23 23° W 12:40:23 10° NW visible
26 Nov 8.2 00:05:35 10° NNE 00:08:59 38° E 00:12:18 10° SSE visible
26 Nov 7.5 12:08:21 10° S 12:11:56 54° W 12:15:34 10° NNW visible
26 Nov 9.7 23:41:06 10° NE 23:43:29 17° E 23:45:49 10° SE visible
28 Nov 6.9 00:48:01 10° N 00:51:29 44° WNW 00:54:52 10° SSW visible
28 Nov 10.0 12:52:43 10° SW 12:54:38 14° W 12:56:33 10° WNW visible
29 Nov 6.8 00:22:32 10° NNE 00:26:08 72° ESE 00:29:38 10° S visible
29 Nov 8.9 12:25:51 10° SSW 12:29:06 30° W 12:32:24 10° NW visible
29 Nov 8.7 23:57:31 10° NE 00:00:40 28° E 00:03:46 10° SSE visible
30 Nov 10.0 23:33:30 10° ENE 23:35:08 13° E 23:36:45 10° ESE visible
